{"data":{"norad_id":69605,"epoch":"2026-09-19T03:40:17.854752Z","epoch_age_seconds":145408,"freshness":"FRESH","line1":"1 69605U 26140P   26262.15298443 -.00000006  00000+0  28223-4 0  9990","line2":"2 69605  51.9025 317.6635 0000393  69.7213 290.3791 14.79931300 15503","mean_motion":14.799313,"eccentricity":3.93e-5,"inclination_deg":51.9025,"raan_deg":317.6635,"arg_perigee_deg":69.7213,"mean_anomaly_deg":290.3791,"bstar":2.8223e-5,"rev_number":1550,"period_min":97.301813942309,"perigee_km":629.26559391364,"apogee_km":629.8163974041,"semimajor_km":7007.6779956589,"source":"CELESTRAK","updated_at":"2026-09-20T09:00:25.001988Z"}}